Theta_e
307 306 307 307 306 307 309 308 309 309 308 310 309 309 309 309 308 308 308 309 308 308 312 316 320 321 324 331 337 341 342 344 344 342 344 344 345 346 344 336 334 328 331 332
307 308 307 308 308 308 308 309 309 309 309 308 309 309 308 309 309 309 310 309 309 308 308 309 314 319 320 325 333 338 342 344 344 344 345 343 345 345 343 340 339 336 332 332
307 309 309 310 310 311 310 310 311 311 311 310 310 309 310 310 310 309 310 309 308 309 310 311 313 318 320 322 324 332 339 343 345 345 345 338 338 339 336 333 334 336 336 331
307 308 309 308 310 309 310 309 310 311 311 309 310 311 309 309 309 309 309 307 307 307 307 309 312 316 320 322 323 323 328 335 342 342 341 335 334 333 337 339 338 339 341 339
310 310 309 310 309 309 309 309 309 310 309 308 309 308 307 309 309 308 307 307 307 307 308 308 309 313 317 320 323 324 324 330 334 337 337 337 333 329 328 331 330 332 334 335
308 309 309 308 310 309 311 311 307 305 305 308 308 308 309 308 309 308 309 308 308 308 309 308 309 311 314 318 322 324 325 324 324 325 327 328 328 326 325 324 325 327 329 329
310 310 309 310 310 310 309 308 310 311 310 313 309 308 310 308 308 308 309 309 309 309 309 310 311 309 313 317 320 324 326 324 322 321 321 320 319 320 320 320 320 322 325 326
310 312 310 311 310 311 307 307 310 316 313 314 313 310 309 308 310 311 311 310 309 308 308 311 313 310 310 315 319 322 324 322 321 321 320 319 318 316 316 316 317 319 321 320
310 312 312 312 311 309 311 309 308 310 315 316 314 313 314 313 312 312 314 311 311 310 310 311 312 314 314 316 319 321 321 319 320 319 319 318 318 317 317 318 319 320 321 319
313 314 313 313 313 312 313 313 316 315 320 318 315 318 316 314 313 315 314 313 310 310 310 309 309 312 313 315 316 319 321 319 319 320 318 317 318 317 318 318 318 319 320 319
312 312 314 313 313 314 313 315 317 317 319 324 324 317 310 311 313 314 313 312 312 311 309 309 309 312 312 312 317 316 318 320 319 320 320 319 319 318 319 319 319 319 318 319
312 314 317 316 312 314 315 316 319 321 322 320 315 318 313 311 313 314 312 312 312 312 311 309 309 312 313 314 312 314 316 317 319 318 318 318 319 320 319 319 319 320 319 319
313 314 320 318 314 314 317 318 317 316 315 317 319 317 312 312 312 312 312 313 313 315 313 312 310 309 310 311 313 314 313 313 314 315 316 317 318 317 318 319 319 319 320 319
313 314 316 320 317 315 317 317 317 317 318 314 316 316 314 314 313 312 311 312 313 314 314 312 310 310 311 313 312 314 314 314 314 315 314 314 314 316 317 318 318 319 319 319
313 315 315 316 315 313 313 315 316 317 316 317 314 314 313 312 313 312 311 312 315 314 313 312 311 310 310 310 310 311 311 312 313 313 313 313 314 314 315 316 317 318 318 318
309 310 312 313 312 313 316 313 312 314 314 314 314 315 310 309 312 314 311 312 313 312 311 311 310 310 309 308 308 307 307 307 309 310 311 312 313 313 313 314 315 317 318 317
308 309 311 311 310 311 312 311 310 311 313 313 315 313 310 312 313 313 311 312 311 309 308 308 307 307 305 304 304 305 305 304 305 306 307 309 311 312 313 313 314 314 315 316
304 306 307 308 308 313 309 314 314 314 315 314 314 314 313 313 310 308 308 308 308 306 305 304 304 304 303 303 302 302 303 303 303 304 305 306 307 309 311 312 313 313 314 315
305 307 307 311 309 309 312 316 315 314 315 314 315 313 311 309 307 307 308 307 305 305 304 303 304 302 302 303 302 302 302 301 301 302 303 304 305 306 308 308 311 313 313 314
307 310 311 308 310 313 307 314 312 313 314 311 310 309 308 307 309 308 305 304 304 304 303 303 303 303 302 302 302 302 302 301 301 301 301 302 303 305 306 307 307 307 310 312
312 312 309 314 314 313 312 312 312 313 308 306 305 304 304 307 306 305 304 304 303 303 303 303 303 303 303 302 302 301 301 301 301 300 300 301 302 303 304 305 306 308 308 309
311 313 306 311 312 310 306 308 310 305 303 304 304 304 305 305 305 305 305 304 302 302 303 302 301 300 300 301 302 301 300 300 300 300 300 300 300 301 302 303 304 306 307 308
312 311 308 308 306 306 304 304 304 303 303 303 305 305 306 306 305 303 302 302 303 303 300 300 300 300 299 298 298 298 298 300 300 299 299 300 300 301 302 303 303 304 304 305
308 306 309 308 306 306 303 303 303 303 304 304 304 304 303 302 302 302 303 302 303 300 299 299 299 298 297 297 298 299 299 299 298 298 298 298 299 299 300 300 301 301 303 304
306 306 305 305 303 303 304 303 302 303 303 304 303 303 303 303 302 299 299 299 299 298 297 297 296 296 297 297 297 298 297 297 298 299 299 300 300 300 301 301 301 302 302 303
304 304 302 304 303 303 303 302 302 302 303 303 303 303 303 302 299 298 298 298 299 298 295 295 295 295 296 295 296 296 297 297 298 299 300 300 301 302 303 303 304 304 304 304
Wind_Speed
3 4 5 9 7 5 2 4 5 6 10 3 8 6 9 9 8 10 8 7 7 9 12 17 20 36 34 31 31 33 37 39 39 33 30 29 34 36 35 35 32 30 45 30
5 5 9 5 4 5 5 4 7 9 13 7 8 8 8 7 6 6 7 10 7 7 9 8 14 14 30 35 35 35 35 38 40 36 33 25 34 35 33 32 36 41 40 27
6 7 5 6 3 4 4 5 5 8 4 3 2 4 6 5 4 7 7 7 7 8 10 10 6 13 19 29 40 42 40 40 41 40 35 19 24 19 22 23 24 26 31 34
5 5 6 4 5 6 4 8 7 5 1 5 4 10 4 5 6 6 9 9 10 10 7 8 10 10 19 30 32 39 40 40 36 35 36 31 29 20 25 31 26 22 24 27
8 3 3 4 9 6 9 5 6 5 4 2 3 1 7 3 5 10 8 10 10 10 8 9 10 21 28 23 28 34 33 32 32 33 32 31 26 22 17 17 16 16 17 20
9 1 6 7 2 7 3 1 5 4 3 3 7 6 5 5 8 6 5 9 10 9 9 9 16 22 28 25 23 26 30 31 29 29 28 25 24 20 17 16 14 13 13 14
3 10 5 4 5 5 4 5 4 4 3 10 8 6 11 6 9 8 10 12 10 9 8 8 9 8 19 24 28 29 33 34 30 27 25 22 19 17 15 12 11 11 10 11
5 10 6 4 9 12 7 8 5 6 4 8 3 6 6 7 6 6 5 9 10 8 8 9 9 8 16 21 25 32 37 36 32 28 23 20 17 16 13 11 10 10 10 8
3 6 4 5 6 10 3 4 4 2 2 2 5 6 6 5 4 5 7 8 7 7 9 8 7 6 8 15 20 25 24 26 31 29 26 22 21 18 16 12 11 11 11 9
3 4 5 6 2 0 3 5 1 1 4 6 4 3 5 6 4 5 8 8 7 7 8 9 7 2 3 2 4 14 22 28 28 25 24 25 21 20 16 14 12 13 14 13
1 2 6 1 4 5 1 2 4 3 2 4 8 5 5 3 3 6 8 7 7 8 8 6 8 4 10 6 4 7 8 15 19 22 24 24 27 23 21 21 19 18 18 18
5 4 5 11 3 3 1 3 4 4 4 4 2 10 3 4 4 6 9 9 7 7 7 7 6 13 4 9 9 8 14 18 23 19 22 25 26 22 24 27 26 25 25 25
4 1 2 6 1 1 3 2 3 4 3 6 5 7 2 7 7 10 9 8 7 9 11 10 8 7 10 16 8 10 13 15 19 21 31 33 29 29 30 31 31 31 31 30
4 2 4 6 3 2 6 5 7 6 3 4 7 16 13 14 12 14 10 7 7 6 7 7 7 7 12 14 11 8 13 14 14 12 18 24 30 36 37 36 36 38 36 35
6 6 8 13 16 13 13 13 10 8 9 8 13 9 14 6 9 7 5 6 7 6 6 6 7 7 8 11 13 13 13 12 12 12 11 15 15 24 29 31 35 37 39 38
3 4 3 7 11 10 13 10 9 13 13 10 11 14 2 5 6 11 8 7 5 7 10 9 8 7 7 12 12 17 18 20 20 17 16 15 15 15 17 21 28 32 35 38
4 4 2 4 1 4 5 6 6 4 3 3 4 5 3 5 7 9 11 9 4 5 8 10 7 7 12 12 14 15 19 23 24 23 22 20 18 22 22 20 23 25 30 36
6 5 3 3 3 2 2 2 4 2 2 5 6 6 4 5 7 12 11 8 5 7 12 14 12 14 18 19 20 19 19 18 18 20 21 23 23 22 22 25 25 26 29 32
5 4 2 1 2 5 1 0 2 2 4 0 3 7 9 7 11 11 6 1 4 11 10 16 23 20 24 26 26 25 26 25 23 22 22 22 23 24 25 26 26 26 27 32
4 2 4 2 2 3 4 1 1 3 5 8 8 9 10 8 9 13 3 10 14 14 17 22 26 26 28 28 25 24 25 24 25 25 27 27 26 25 24 25 27 30 27 29
2 1 4 3 3 4 1 4 4 1 4 4 3 7 10 11 13 18 19 18 15 19 25 26 23 25 30 30 27 25 27 27 31 30 28 30 30 29 28 27 27 28 29 29
3 3 2 2 1 6 4 4 2 3 3 5 8 10 16 17 17 18 18 18 20 22 21 25 27 29 33 32 28 25 27 35 32 28 30 32 32 31 29 27 25 24 24 26
2 3 3 6 4 2 2 6 6 2 6 7 10 14 16 15 16 18 19 20 20 18 21 28 27 32 28 27 34 35 35 28 27 33 33 28 27 25 24 25 26 26 27 27
2 1 2 2 0 3 6 3 3 3 8 12 13 14 13 15 17 19 21 18 15 14 22 27 26 21 28 33 27 26 30 32 31 31 32 31 29 29 29 30 30 30 29 27
4 2 1 4 4 7 0 3 5 7 11 14 14 14 17 17 15 17 22 22 18 19 27 26 22 24 27 29 31 28 31 31 30 30 30 29 29 30 29 31 32 32 35 35
3 4 3 4 4 4 7 7 8 11 14 14 15 15 14 13 14 19 21 20 19 19 21 25 23 27 28 30 30 30 30 29 29 28 27 27 27 26 27 27 29 38 45 43
Wind_Direction
19 87 207 218 198 178 191 207 242 255 260 229 253 253 264 284 316 307 298 287 270 269 274 282 246 232 224 224 211 206 207 210 208 204 192 193 197 197 195 206 227 232 222 234
28 236 230 195 185 207 215 247 261 277 261 169 260 258 253 244 246 228 279 302 297 293 306 303 270 232 233 227 222 212 209 209 208 202 196 190 194 203 212 220 223 218 240 228
170 235 116 175 233 201 209 189 237 227 308 264 326 293 250 255 266 287 273 232 262 268 293 299 276 263 243 236 227 222 212 209 207 203 190 182 195 204 205 216 224 229 222 231
226 258 203 185 225 166 252 220 242 253 168 242 125 282 238 240 255 269 278 294 286 288 282 279 285 268 244 241 234 228 221 217 205 205 201 190 178 182 204 220 226 221 214 223
240 199 161 188 223 144 244 219 232 252 232 57 282 292 277 229 273 269 253 263 269 268 260 275 271 274 278 270 241 232 225 213 207 204 209 203 203 203 181 185 195 205 211 211
241 259 183 213 257 171 225 184 45 52 89 238 231 209 191 223 240 275 267 257 263 276 280 273 274 278 272 265 243 225 212 207 204 199 203 206 208 201 192 194 195 195 194 195
299 251 244 166 291 283 127 81 311 312 300 264 222 238 252 234 247 227 269 302 288 269 274 275 275 271 256 243 232 215 206 203 201 201 199 197 198 205 206 219 224 229 215 201
199 278 177 188 194 228 185 160 181 245 242 273 29 242 247 218 252 318 317 279 294 303 276 273 283 266 255 237 222 205 199 200 196 197 196 194 197 201 202 211 220 229 232 231
196 265 256 224 195 151 193 177 198 175 44 340 225 295 305 279 12 356 334 358 324 322 311 295 292 322 293 256 229 209 199 195 194 195 195 195 196 195 196 203 216 224 232 230
252 279 253 280 143 12 171 149 121 18 294 264 239 264 243 267 255 315 342 337 338 331 327 318 314 306 82 49 240 205 197 201 198 202 205 205 202 204 204 212 222 231 235 233
200 63 290 225 223 220 167 177 67 96 167 261 289 253 219 249 234 285 300 282 294 302 297 298 301 1 56 343 253 297 248 229 226 214 231 215 214 209 212 220 223 230 235 234
348 159 226 258 323 304 86 131 150 164 213 231 240 264 309 282 251 265 296 301 301 293 293 298 293 305 26 89 337 256 250 255 252 248 252 250 241 230 227 225 228 230 233 237
59 213 284 306 202 67 83 111 110 96 123 216 235 274 321 303 303 298 297 303 325 324 327 332 321 319 333 3 347 350 335 274 255 257 250 249 252 246 235 240 239 235 237 239
114 290 217 242 265 223 272 225 206 173 206 249 232 281 294 291 304 295 281 305 320 344 5 22 5 357 12 11 11 350 308 292 297 286 279 257 249 246 244 240 241 245 239 240
140 230 225 237 248 263 257 254 246 208 231 234 276 266 280 323 314 318 323 320 324 344 351 354 6 328 343 346 3 3 350 342 318 319 312 286 282 262 251 245 245 245 249 244
173 239 220 264 256 258 256 253 255 255 255 248 263 274 100 286 328 339 307 312 327 330 334 347 5 336 336 338 339 337 339 341 339 333 316 309 291 280 262 254 246 246 247 247
177 167 148 257 338 319 273 239 223 231 209 180 225 238 290 306 311 293 305 310 302 332 334 326 301 288 294 301 315 314 320 324 325 321 317 316 310 299 290 281 265 252 246 246
164 155 167 251 20 236 255 44 85 50 239 238 249 269 278 293 287 292 285 272 312 322 326 319 302 299 306 308 313 312 313 310 306 304 305 304 299 299 300 293 282 272 261 250
156 139 104 209 213 290 101 99 64 355 279 236 341 338 329 321 312 287 241 246 293 309 302 306 297 297 304 306 307 309 311 309 305 299 291 284 281 280 282 282 285 280 273 262
109 68 166 152 191 248 218 157 100 280 267 32 354 323 305 318 293 288 292 328 305 296 291 298 287 290 292 288 287 290 291 290 289 290 289 287 281 275 269 270 270 273 274 268
86 105 182 191 226 284 10 329 321 315 266 322 282 285 298 291 285 297 307 302 294 294 293 293 279 286 289 285 278 273 276 278 282 282 283 283 277 272 268 267 262 260 260 259
176 176 206 153 242 282 11 351 301 235 253 266 290 288 293 288 285 289 292 287 293 293 294 298 295 292 291 285 284 279 279 285 276 276 279 279 272 268 268 261 257 252 245 242
207 194 189 181 222 241 195 227 264 229 286 289 284 297 292 297 296 290 292 288 285 284 293 294 288 287 286 289 287 279 278 275 284 282 277 273 276 271 264 260 258 255 250 245
313 40 219 355 228 233 273 269 224 270 285 296 298 299 300 293 295 293 298 296 302 301 296 293 291 289 290 286 277 280 284 281 279 274 272 271 265 263 260 256 252 249 246 242
219 28 178 273 291 306 46 255 271 297 301 308 302 298 295 292 301 319 303 294 292 296 294 300 284 287 280 285 281 279 281 277 273 269 267 264 262 261 259 253 248 243 241 239
193 187 145 240 241 208 278 283 305 301 295 296 295 294 294 285 300 316 306 297 292 294 296 296 286 287 283 285 281 281 280 277 274 271 269 265 262 258 254 253 254 246 242 241